Retour au catalogue

STARLINK-37241

ActifCommunicationsVLEO
NORAD 68528·PAYLOAD·🇺🇸 United States

Lancé Mar 30, 2026 depuis Cape Canaveral Space Force Station

Loading…

Prochains Passages (prochaines 24 heures)

TLE

FraisSource: CelesTrak SupGP

Époque: Sep 15, 2026, 04:23 UTC

1 68528C 26068W   26258.18312500  .00044402  00000+0  13112-2 0  2585
2 68528  53.1598 326.5637 0001260  91.9069 237.1529 15.34384353    16

Suivez STARLINK-37241 en temps réel avec AllMySat

Download on the App Store